| time (UTC) | temp C | wind direction | speed KPH | gust KPH | rain 1hr cm | rain 24hr cm | rain mn cm | humidity % | barometer mb |
| 20260506051354 | 16 | 189 | 3.2 | 3.2 | 0.00 | 0.00 | 0.00 | 64 | 1011.7 |
| 20260506050851 | 16 | 140 | 1.6 | 1.6 | 0.00 | 0.00 | 0.00 | 64 | 1011.9 |
| 20260506050349 | 16 | 185 | 3.2 | 3.2 | 0.00 | 0.00 | 0.00 | 64 | 1011.8 |
| 20260506044839 | 17 | 171 | 3.2 | 3.2 | 0.00 | 0.00 | 0.00 | 62 | 1012.0 |
| 20260506044337 | 17 | 143 | 1.6 | 1.6 | 0.00 | 0.00 | 0.00 | 62 | 1011.9 |
| 20260506043834 | 17 | 233 | 4.8 | 4.8 | 0.00 | 0.00 | 0.00 | 61 | 1012.0 |
| 20260506043331 | 17 | 139 | 1.6 | 1.6 | 0.00 | 0.00 | 0.00 | 62 | 1012.0 |
| 20260506042829 | 17 | 155 | 3.2 | 4.8 | 0.00 | 0.00 | 0.00 | 61 | 1011.7 |
| 20260506042328 | 17 | 172 | 3.2 | 3.2 | 0.00 | 0.00 | 0.00 | 61 | 1012.1 |
| 20260506041827 | 17 | 151 | 3.2 | 3.2 | 0.00 | 0.00 | 0.00 | 61 | 1012.0 |
| 20260506041323 | 17 | 149 | 1.6 | 1.6 | 0.00 | 0.00 | 0.00 | 61 | 1012.3 |
| 20260506040820 | 17 | 140 | 1.6 | 3.2 | 0.00 | 0.00 | 0.00 | 60 | 1012.0 |
| 20260506040318 | 17 | 159 | 1.6 | 3.2 | 0.00 | 0.00 | 0.00 | 59 | 1012.0 |
| 20260506035814 | 17 | 155 | 1.6 | 1.6 | 0.00 | 0.00 | 0.00 | 59 | 1012.0 |
| 20260506035311 | 17 | 156 | 3.2 | 4.8 | 0.00 | 0.00 | 0.00 | 59 | 1012.3 |
| 20260506034808 | 17 | 163 | 3.2 | 3.2 | 0.00 | 0.00 | 0.00 | 59 | 1012.0 |
| 20260506034305 | 17 | 141 | 1.6 | 3.2 | 0.00 | 0.00 | 0.00 | 59 | 1012.1 |
| 20260506033802 | 17 | 178 | 4.8 | 4.8 | 0.00 | 0.00 | 0.00 | 59 | 1012.0 |
| 20260506033259 | 17 | 161 | 3.2 | 3.2 | 0.00 | 0.00 | 0.00 | 58 | 1012.0 |
| 20260506032756 | 17 | 160 | 1.6 | 1.6 | 0.00 | 0.00 | 0.00 | 58 | 1012.1 |
| 20260506032253 | 18 | 155 | 1.6 | 3.2 | 0.00 | 0.00 | 0.00 | 57 | 1012.0 |
| 20260506031749 | 18 | 160 | 4.8 | 4.8 | 0.00 | 0.00 | 0.00 | 57 | 1012.0 |
| 20260506031247 | 18 | 186 | 4.8 | 4.8 | 0.00 | 0.00 | 0.00 | 57 | 1011.8 |
| 20260506030745 | 18 | 109 | 3.2 | 3.2 | 0.00 | 0.00 | 0.00 | 56 | 1012.0 |
| 20260506030243 | 18 | 164 | 1.6 | 1.6 | 0.00 | 0.00 | 0.00 | 56 | 1012.0 |
| 20260506025739 | 18 | 156 | 1.6 | 3.2 | 0.00 | 0.00 | 0.00 | 56 | 1012.1 |
| 20260506025235 | 18 | 172 | 3.2 | 3.2 | 0.00 | 0.00 | 0.00 | 55 | 1012.0 |
| 20260506024733 | 18 | 166 | 3.2 | 3.2 | 0.00 | 0.00 | 0.00 | 55 | 1012.0 |
| 20260506024229 | 18 | 193 | 3.2 | 3.2 | 0.00 | 0.00 | 0.00 | 55 | 1012.0 |
| 20260506023725 | 18 | 174 | 4.8 | 4.8 | 0.00 | 0.00 | 0.00 | 55 | 1012.0 |
| 20260506023223 | 18 | 78 | 4.8 | 8.0 | 0.00 | 0.00 | 0.00 | 54 | 1012.1 |
| 20260506022719 | 18 | 168 | 6.4 | 8.0 | 0.00 | 0.00 | 0.00 | 54 | 1012.3 |
| 20260506022217 | 18 | 181 | 4.8 | 4.8 | 0.00 | 0.00 | 0.00 | 54 | 1012.1 |
| 20260506021715 | 19 | 174 | 1.6 | 3.2 | 0.00 | 0.00 | 0.00 | 54 | 1012.1 |
| 20260506021212 | 19 | 138 | 3.2 | 3.2 | 0.00 | 0.00 | 0.00 | 54 | 1012.1 |
| 20260506020708 | 19 | 176 | 4.8 | 4.8 | 0.00 | 0.00 | 0.00 | 53 | 1012.1 |
| 20260506020206 | 19 | 134 | 3.2 | 4.8 | 0.00 | 0.00 | 0.00 | 53 | 1011.9 |
| 20260506015704 | 19 | 142 | 3.2 | 3.2 | 0.00 | 0.00 | 0.00 | 54 | 1011.9 |
| 20260506015201 | 19 | 185 | 3.2 | 3.2 | 0.00 | 0.00 | 0.00 | 53 | 1012.1 |
| 20260506014658 | 20 | 159 | 3.2 | 3.2 | 0.00 | 0.00 | 0.00 | 53 | 1012.0 |
| 20260506014154 | 20 | 160 | 4.8 | 4.8 | 0.00 | 0.00 | 0.00 | 53 | 1012.1 |
| 20260506013652 | 20 | 198 | 4.8 | 4.8 | 0.00 | 0.00 | 0.00 | 52 | 1011.8 |
| 20260506013149 | 20 | 193 | 6.4 | 8.0 | 0.00 | 0.00 | 0.00 | 51 | 1011.7 |
| 20260506012645 | 20 | 185 | 4.8 | 4.8 | 0.00 | 0.00 | 0.00 | 52 | 1011.8 |
| 20260506012142 | 20 | 165 | 3.2 | 3.2 | 0.00 | 0.00 | 0.00 | 51 | 1011.6 |
| 20260506011639 | 20 | 162 | 3.2 | 3.2 | 0.00 | 0.00 | 0.00 | 51 | 1011.4 |
| 20260506011135 | 20 | 166 | 1.6 | 3.2 | 0.00 | 0.00 | 0.00 | 52 | 1011.6 |
| 20260506010634 | 20 | 133 | 4.8 | 4.8 | 0.00 | 0.00 | 0.00 | 51 | 1011.6 |
| 20260506010131 | 20 | 148 | 1.6 | 1.6 | 0.00 | 0.00 | 0.00 | 51 | 1011.4 |
| 20260506005628 | 20 | 135 | 3.2 | 3.2 | 0.00 | 0.00 | 0.00 | 51 | 1011.1 |
| 20260506005124 | 20 | 177 | 1.6 | 3.2 | 0.00 | 0.00 | 0.00 | 50 | 1011.5 |
| 20260506004621 | 20 | 160 | 3.2 | 3.2 | 0.00 | 0.00 | 0.00 | 50 | 1011.4 |
| 20260506004118 | 20 | 163 | 3.2 | 4.8 | 0.00 | 0.00 | 0.00 | 49 | 1011.4 |
| 20260506003614 | 20 | 168 | 3.2 | 3.2 | 0.00 | 0.00 | 0.00 | 48 | 1011.3 |
| 20260506003110 | 20 | 165 | 3.2 | 3.2 | 0.00 | 0.00 | 0.00 | 48 | 1011.2 |
| 20260506002606 | 20 | 178 | 4.8 | 8.0 | 0.00 | 0.00 | 0.00 | 48 | 1011.2 |
| 20260506002103 | 21 | 198 | 4.8 | 8.0 | 0.00 | 0.00 | 0.00 | 48 | 1011.4 |
| 20260506001559 | 21 | 165 | 1.6 | 3.2 | 0.00 | 0.00 | 0.00 | 47 | 1011.2 |
| 20260506001056 | 21 | 149 | 3.2 | 3.2 | 0.00 | 0.00 | 0.00 | 47 | 1011.2 |
| 20260506000554 | 21 | 165 | 3.2 | 3.2 | 0.00 | 0.00 | 0.00 | 47 | 1011.3 |
| 20260506000051 | 21 | 139 | 3.2 | 3.2 | 0.00 | 0.00 | 0.00 | 47 | 1011.0 |
| 20260505235549 | 21 | 180 | 4.8 | 4.8 | 0.00 | 0.00 | 0.00 | 47 | 1011.2 |
| 20260505235045 | 21 | 167 | 3.2 | 3.2 | 0.00 | 0.00 | 0.00 | 47 | 1011.1 |
| 20260505234542 | 21 | 144 | 1.6 | 1.6 | 0.00 | 0.00 | 0.00 | 48 | 1011.1 |
| 20260505234039 | 21 | 138 | 3.2 | 3.2 | 0.00 | 0.00 | 0.00 | 48 | 1011.1 |
| 20260505233537 | 21 | 145 | 3.2 | 3.2 | 0.00 | 0.00 | 0.00 | 47 | 1011.0 |
| 20260505233034 | 21 | 158 | 3.2 | 3.2 | 0.00 | 0.00 | 0.00 | 48 | 1011.0 |
| 20260505232532 | 21 | 156 | 3.2 | 3.2 | 0.00 | 0.00 | 0.00 | 48 | 1010.9 |
| 20260505232029 | 21 | 144 | 1.6 | 1.6 | 0.00 | 0.00 | 0.00 | 47 | 1011.0 |
| 20260505231526 | 21 | 168 | 1.6 | 3.2 | 0.00 | 0.00 | 0.00 | 47 | 1011.0 |
| 20260505231025 | 21 | 174 | 3.2 | 3.2 | 0.00 | 0.00 | 0.00 | 47 | 1010.9 |
| 20260505230521 | 21 | 321 | 4.8 | 4.8 | 0.00 | 0.00 | 0.00 | 46 | 1010.8 |
| 20260505230018 | 21 | 159 | 1.6 | 3.2 | 0.00 | 0.00 | 0.00 | 47 | 1011.1 |
| 20260505225515 | 21 | 169 | 4.8 | 4.8 | 0.00 | 0.00 | 0.00 | 46 | 1010.7 |
| 20260505225011 | 21 | 145 | 3.2 | 3.2 | 0.00 | 0.00 | 0.00 | 47 | 1010.7 |
| 20260505224508 | 21 | 222 | 4.8 | 4.8 | 0.00 | 0.00 | 0.00 | 46 | 1010.6 |
| 20260505224005 | 21 | 158 | 4.8 | 4.8 | 0.00 | 0.00 | 0.00 | 46 | 1010.6 |
| 20260505223502 | 21 | 171 | 3.2 | 3.2 | 0.00 | 0.00 | 0.00 | 45 | 1010.6 |
| 20260505222958 | 21 | 252 | 4.8 | 8.0 | 0.00 | 0.00 | 0.00 | 45 | 1010.8 |
| 20260505222455 | 21 | 160 | 1.6 | 3.2 | 0.00 | 0.00 | 0.00 | 45 | 1010.6 |
| 20260505221950 | 21 | 144 | 1.6 | 1.6 | 0.00 | 0.00 | 0.00 | 45 | 1010.6 |
| 20260505221448 | 22 | 210 | 3.2 | 3.2 | 0.00 | 0.00 | 0.00 | 45 | 1010.9 |
| 20260505220945 | 22 | 184 | 3.2 | 4.8 | 0.00 | 0.00 | 0.00 | 45 | 1010.6 |
| 20260505220442 | 22 | 172 | 4.8 | 4.8 | 0.00 | 0.00 | 0.00 | 45 | 1010.5 |
| 20260505215940 | 22 | 144 | 1.6 | 1.6 | 0.00 | 0.00 | 0.00 | 46 | 1010.6 |
| 20260505215438 | 22 | 295 | 3.2 | 3.2 | 0.00 | 0.00 | 0.00 | 45 | 1010.4 |
| 20260505214935 | 22 | 179 | 4.8 | 4.8 | 0.00 | 0.00 | 0.00 | 45 | 1010.5 |
| 20260505214433 | 22 | 173 | 4.8 | 4.8 | 0.00 | 0.00 | 0.00 | 44 | 1010.1 |
| 20260505213930 | 22 | 296 | 4.8 | 8.0 | 0.00 | 0.00 | 0.00 | 44 | 1010.4 |
| 20260505213427 | 22 | 237 | 4.8 | 8.0 | 0.00 | 0.00 | 0.00 | 45 | 1010.1 |
| 20260505212923 | 22 | 220 | 8.0 | 9.7 | 0.00 | 0.00 | 0.00 | 44 | 1010.1 |
| 20260505212420 | 22 | 250 | 4.8 | 4.8 | 0.00 | 0.00 | 0.00 | 44 | 1010.4 |
| 20260505211916 | 22 | 192 | 4.8 | 4.8 | 0.00 | 0.00 | 0.00 | 45 | 1010.2 |
| 20260505211414 | 22 | 191 | 4.8 | 4.8 | 0.00 | 0.00 | 0.00 | 45 | 1010.0 |
| 20260505210910 | 23 | 195 | 3.2 | 4.8 | 0.00 | 0.00 | 0.00 | 45 | 1010.1 |
| 20260505210408 | 23 | 88 | 1.6 | 1.6 | 0.00 | 0.00 | 0.00 | 44 | 1010.0 |
| 20260505205905 | 23 | 229 | 8.0 | 8.0 | 0.00 | 0.00 | 0.00 | 42 | 1010.0 |
| 20260505205403 | 23 | 193 | 3.2 | 3.2 | 0.00 | 0.00 | 0.00 | 41 | 1010.0 |
| 20260505204900 | 23 | 217 | 4.8 | 8.0 | 0.00 | 0.00 | 0.00 | 40 | 1010.0 |
| 20260505204357 | 23 | 141 | 3.2 | 3.2 | 0.00 | 0.00 | 0.00 | 38 | 1009.7 |
| 20260505203855 | 24 | 124 | 4.8 | 8.0 | 0.00 | 0.00 | 0.00 | 36 | 1009.9 |
| 20260505203351 | 23 | 248 | 6.4 | 8.0 | 0.00 | 0.00 | 0.00 | 37 | 1010.2 |
| 20260505202847 | 24 | 161 | 4.8 | 4.8 | 0.00 | 0.00 | 0.00 | 37 | 1010.0 |
| 20260505202343 | 24 | 184 | 3.2 | 4.8 | 0.00 | 0.00 | 0.00 | 37 | 1009.9 |
| 20260505201840 | 25 | 169 | 8.0 | 9.7 | 0.00 | 0.00 | 0.00 | 36 | 1010.0 |
| 20260505201337 | 23 | 234 | 3.2 | 3.2 | 0.00 | 0.00 | 0.00 | 39 | 1009.9 |
| 20260505200836 | 23 | 191 | 11.3 | 14.5 | 0.00 | 0.00 | 0.00 | 38 | 1009.9 |
| 20260505200332 | 23 | 265 | 4.8 | 4.8 | 0.00 | 0.00 | 0.00 | 39 | 1009.8 |
| 20260505195828 | 23 | 220 | 3.2 | 3.2 | 0.00 | 0.00 | 0.00 | 37 | 1010.0 |
| 20260505195325 | 23 | 189 | 8.0 | 9.7 | 0.00 | 0.00 | 0.00 | 37 | 1010.2 |
| 20260505194822 | 23 | 179 | 4.8 | 8.0 | 0.00 | 0.00 | 0.00 | 37 | 1010.1 |
| 20260505194319 | 23 | 177 | 4.8 | 4.8 | 0.00 | 0.00 | 0.00 | 37 | 1010.2 |
| 20260505193814 | 23 | 230 | 9.7 | 12.9 | 0.00 | 0.00 | 0.00 | 37 | 1010.4 |
| 20260505193313 | 23 | 326 | 8.0 | 11.3 | 0.00 | 0.00 | 0.00 | 39 | 1010.4 |
| 20260505192810 | 23 | 187 | 8.0 | 9.7 | 0.00 | 0.00 | 0.00 | 37 | 1010.2 |
| 20260505192310 | 24 | 271 | 8.0 | 11.3 | 0.00 | 0.00 | 0.00 | 36 | 1010.8 |
| 20260505191806 | 24 | 202 | 8.0 | 9.7 | 0.00 | 0.00 | 0.00 | 38 | 1010.5 |
| 20260505191304 | 24 | 293 | 8.0 | 11.3 | 0.00 | 0.00 | 0.00 | 38 | 1010.5 |
| 20260505190800 | 24 | 167 | 8.0 | 12.9 | 0.00 | 0.00 | 0.00 | 37 | 1010.4 |
| 20260505190256 | 24 | 214 | 8.0 | 11.3 | 0.00 | 0.00 | 0.00 | 37 | 1010.8 |
| 20260505185752 | 23 | 144 | 4.8 | 8.0 | 0.00 | 0.00 | 0.00 | 40 | 1010.7 |
| 20260505185248 | 23 | 193 | 6.4 | 9.7 | 0.00 | 0.00 | 0.00 | 39 | 1011.0 |
| 20260505184744 | 23 | 190 | 4.8 | 9.7 | 0.00 | 0.00 | 0.00 | 39 | 1010.9 |
| 20260505184242 | 23 | 171 | 4.8 | 9.7 | 0.00 | 0.00 | 0.00 | 39 | 1010.9 |
| 20260505183738 | 23 | 198 | 8.0 | 11.3 | 0.00 | 0.00 | 0.00 | 38 | 1010.9 |
| 20260505183236 | 23 | 182 | 6.4 | 9.7 | 0.00 | 0.00 | 0.00 | 39 | 1010.8 |
| 20260505182732 | 23 | 219 | 6.4 | 9.7 | 0.00 | 0.00 | 0.00 | 40 | 1010.8 |
| 20260505182229 | 24 | 193 | 6.4 | 8.0 | 0.00 | 0.00 | 0.00 | 41 | 1011.0 |
| 20260505181725 | 23 | 138 | 1.6 | 1.6 | 0.00 | 0.00 | 0.00 | 41 | 1011.1 |
| 20260505181223 | 23 | 180 | 4.8 | 11.3 | 0.00 | 0.00 | 0.00 | 42 | 1011.2 |
| 20260505180720 | 23 | 169 | 4.8 | 4.8 | 0.00 | 0.00 | 0.00 | 44 | 1011.5 |
| 20260505180217 | 23 | 272 | 6.4 | 8.0 | 0.00 | 0.00 | 0.00 | 44 | 1011.3 |
| 20260505175713 | 23 | 181 | 8.0 | 9.7 | 0.00 | 0.00 | 0.00 | 45 | 1011.1 |
| 20260505175209 | 23 | 154 | 4.8 | 4.8 | 0.00 | 0.00 | 0.00 | 46 | 1011.4 |
| 20260505174706 | 22 | 142 | 1.6 | 3.2 | 0.00 | 0.00 | 0.00 | 48 | 1011.8 |
| 20260505174203 | 22 | 180 | 4.8 | 4.8 | 0.00 | 0.00 | 0.00 | 48 | 1011.7 |
| 20260505173659 | 22 | 192 | 9.7 | 11.3 | 0.00 | 0.00 | 0.00 | 48 | 1011.4 |
| 20260505173155 | 23 | 82 | 8.0 | 12.9 | 0.00 | 0.00 | 0.00 | 45 | 1011.3 |
| 20260505172653 | 23 | 188 | 4.8 | 4.8 | 0.00 | 0.00 | 0.00 | 46 | 1011.6 |
| 20260505172150 | 23 | 138 | 3.2 | 4.8 | 0.00 | 0.00 | 0.00 | 44 | 1011.5 |
| 20260505171649 | 23 | 347 | 9.7 | 11.3 | 0.00 | 0.00 | 0.00 | 43 | 1011.9 |
| 20260505171147 | 23 | 299 | 11.3 | 14.5 | 0.00 | 0.00 | 0.00 | 44 | 1011.6 |
| 20260505170644 | 23 | 183 | 4.8 | 4.8 | 0.00 | 0.00 | 0.00 | 44 | 1011.6 |
| 20260505170140 | 23 | 171 | 6.4 | 9.7 | 0.00 | 0.00 | 0.00 | 45 | 1011.6 |
| 20260505165635 | 23 | 226 | 4.8 | 8.0 | 0.00 | 0.00 | 0.00 | 45 | 1011.4 |
| 20260505165132 | 23 | 254 | 4.8 | 9.7 | 0.00 | 0.00 | 0.00 | 46 | 1011.5 |
| 20260505164627 | 23 | 189 | 3.2 | 3.2 | 0.00 | 0.00 | 0.00 | 47 | 1011.5 |
| 20260505164125 | 23 | 249 | 8.0 | 11.3 | 0.00 | 0.00 | 0.00 | 49 | 1011.7 |
| 20260505163623 | 23 | 189 | 6.4 | 9.7 | 0.00 | 0.00 | 0.00 | 48 | 1011.8 |
| 20260505163120 | 22 | 261 | 6.4 | 9.7 | 0.00 | 0.00 | 0.00 | 50 | 1011.7 |
| 20260505162617 | 22 | 36 | 3.2 | 3.2 | 0.00 | 0.00 | 0.00 | 51 | 1011.9 |
| 20260505162115 | 22 | 248 | 6.4 | 9.7 | 0.00 | 0.00 | 0.00 | 50 | 1011.9 |
| 20260505161612 | 23 | 343 | 4.8 | 4.8 | 0.00 | 0.00 | 0.00 | 51 | 1012.0 |
| 20260505161109 | 22 | 152 | 4.8 | 4.8 | 0.00 | 0.00 | 0.00 | 48 | 1011.9 |
| 20260505160607 | 22 | 184 | 4.8 | 4.8 | 0.00 | 0.00 | 0.00 | 51 | 1012.1 |
| 20260505160104 | 22 | 155 | 8.0 | 9.7 | 0.00 | 0.00 | 0.00 | 52 | 1012.4 |
| 20260505153044 | 22 | 339 | 6.4 | 9.7 | 0.00 | 0.00 | 0.00 | 55 | 1012.5 |
| 20260505152540 | 21 | 212 | 3.2 | 4.8 | 0.00 | 0.00 | 0.00 | 55 | 1012.5 |
| 20260505152036 | 21 | 69 | 1.6 | 1.6 | 0.00 | 0.00 | 0.00 | 56 | 1012.5 |
| 20260505151531 | 21 | 155 | 4.8 | 8.0 | 0.00 | 0.00 | 0.00 | 56 | 1012.3 |
| 20260505151029 | 21 | 146 | 3.2 | 3.2 | 0.00 | 0.00 | 0.00 | 56 | 1012.4 |
| 20260505150525 | 20 | 358 | 3.2 | 4.8 | 0.00 | 0.00 | 0.00 | 56 | 1012.6 |
| 20260505140450 | 20 | 136 | 3.2 | 4.8 | 0.00 | 0.00 | 0.00 | 62 | 1012.8 |
| 20260505124903 | 18 | 117 | 1.6 | 3.2 | 0.00 | 0.00 | 0.00 | 64 | 1012.6 |
| 20260505124400 | 17 | 219 | 4.8 | 4.8 | 0.00 | 0.00 | 0.00 | 62 | 1012.3 |
| 20260505123856 | 17 | 93 | 3.2 | 3.2 | 0.00 | 0.00 | 0.00 | 65 | 1012.5 |
| 20260505123353 | 16 | 309 | 4.8 | 8.0 | 0.00 | 0.00 | 0.00 | 66 | 1012.5 |
| 20260505122849 | 16 | 104 | 3.2 | 3.2 | 0.00 | 0.00 | 0.00 | 66 | 1012.4 |
| 20260505122347 | 16 | 172 | 3.2 | 3.2 | 0.00 | 0.00 | 0.00 | 68 | 1012.5 |
| 20260505121843 | 16 | 186 | 1.6 | 1.6 | 0.00 | 0.00 | 0.00 | 67 | 1012.6 |
| 20260505121340 | 16 | 164 | 3.2 | 3.2 | 0.00 | 0.00 | 0.00 | 68 | 1012.6 |
| 20260505120836 | 15 | 135 | 1.6 | 3.2 | 0.00 | 0.00 | 0.00 | 69 | 1012.5 |
| 20260505120332 | 16 | 159 | 3.2 | 3.2 | 0.00 | 0.00 | 0.00 | 69 | 1012.6 |
| 20260505115831 | 15 | 219 | 4.8 | 4.8 | 0.00 | 0.00 | 0.00 | 69 | 1012.6 |
| 20260505115328 | 15 | 341 | 6.4 | 9.7 | 0.00 | 0.00 | 0.00 | 69 | 1012.6 |
| 20260505114826 | 15 | 224 | 3.2 | 3.2 | 0.00 | 0.00 | 0.00 | 72 | 1012.6 |
| 20260505114322 | 15 | 143 | 3.2 | 3.2 | 0.00 | 0.00 | 0.00 | 71 | 1012.4 |
| 20260505113819 | 15 | 161 | 1.6 | 1.6 | 0.00 | 0.00 | 0.00 | 72 | 1012.7 |
| 20260505113315 | 15 | 146 | 1.6 | 3.2 | 0.00 | 0.00 | 0.00 | 73 | 1012.3 |
| 20260505112811 | 14 | 144 | 1.6 | 1.6 | 0.00 | 0.00 | 0.00 | 74 | 1012.0 |
| 20260505112309 | 14 | 173 | 1.6 | 1.6 | 0.00 | 0.00 | 0.00 | 74 | 1012.1 |
| 20260505111804 | 14 | 258 | 1.6 | 3.2 | 0.00 | 0.00 | 0.00 | 74 | 1012.0 |
| 20260505111300 | 13 | 156 | 1.6 | 1.6 | 0.00 | 0.00 | 0.00 | 75 | 1012.1 |
| 20260505110756 | 13 | 146 | 1.6 | 1.6 | 0.00 | 0.00 | 0.00 | 77 | 1012.3 |
| 20260505110254 | 13 | 189 | 1.6 | 3.2 | 0.00 | 0.00 | 0.00 | 75 | 1012.1 |
| 20260505101728 | 12 | 208 | 1.6 | 3.2 | 0.00 | 0.00 | 0.00 | 83 | 1012.1 |
| 20260505101224 | 12 | 157 | 1.6 | 3.2 | 0.00 | 0.00 | 0.00 | 84 | 1011.8 |
| 20260505100720 | 12 | 156 | 1.6 | 1.6 | 0.00 | 0.00 | 0.00 | 84 | 1011.6 |
| 20260505100218 | 12 | 148 | 1.6 | 1.6 | 0.00 | 0.00 | 0.00 | 85 | 1011.7 |
| 20260505095713 | 11 | 275 | 1.6 | 3.2 | 0.00 | 0.00 | 0.00 | 87 | 1011.7 |
| 20260505095211 | 11 | 170 | 1.6 | 3.2 | 0.00 | 0.00 | 0.00 | 88 | 1011.6 |
| 20260505094706 | 11 | 145 | 0.0 | 1.6 | 0.00 | 0.00 | 0.00 | 89 | 1011.7 |
| 20260505094203 | 11 | 239 | 1.6 | 1.6 | 0.00 | 0.00 | 0.00 | 90 | 1011.6 |
| 20260505093659 | 11 | 160 | 1.6 | 1.6 | 0.00 | 0.00 | 0.00 | 90 | 1011.7 |
| 20260505093157 | 11 | 239 | 0.0 | 1.6 | 0.00 | 0.00 | 0.00 | 91 | 1011.8 |
| 20260505092653 | 11 | 148 | 1.6 | 3.2 | 0.00 | 0.00 | 0.00 | 91 | 1011.7 |
| 20260505092152 | 11 | 157 | 1.6 | 3.2 | 0.00 | 0.00 | 0.00 | 90 | 1011.7 |
| 20260505091649 | 11 | 143 | 1.6 | 3.2 | 0.00 | 0.00 | 0.00 | 92 | 1012.0 |
| 20260505091147 | 11 | 168 | 1.6 | 3.2 | 0.00 | 0.00 | 0.00 | 94 | 1011.8 |
| 20260505090644 | 11 | 154 | 0.0 | 1.6 | 0.00 | 0.00 | 0.00 | 94 | 1011.8 |
| 20260505090143 | 11 | 145 | 1.6 | 1.6 | 0.00 | 0.00 | 0.00 | 90 | 1011.8 |
| 20260505085639 | 11 | 93 | 3.2 | 3.2 | 0.00 | 0.00 | 0.00 | 86 | 1012.6 |
| 20260505085138 | 12 | 163 | 4.8 | 4.8 | 0.00 | 0.00 | 0.00 | 82 | 1012.1 |
| 20260505084635 | 13 | 134 | 3.2 | 3.2 | 0.00 | 0.00 | 0.00 | 72 | 1012.3 |
| 20260505084133 | 13 | 188 | 1.6 | 3.2 | 0.00 | 0.00 | 0.00 | 69 | 1012.1 |
| 20260505083630 | 13 | 171 | 3.2 | 3.2 | 0.00 | 0.00 | 0.00 | 69 | 1012.0 |
| 20260505083127 | 13 | 173 | 3.2 | 3.2 | 0.00 | 0.00 | 0.00 | 70 | 1011.7 |
| 20260505082623 | 13 | 135 | 0.0 | 1.6 | 0.00 | 0.00 | 0.00 | 69 | 1011.7 |
| 20260505082120 | 12 | 159 | 1.6 | 1.6 | 0.00 | 0.00 | 0.00 | 70 | 1011.8 |
| 20260505081616 | 12 | 195 | 3.2 | 3.2 | 0.00 | 0.00 | 0.00 | 70 | 1011.5 |
| 20260505081114 | 12 | 146 | 1.6 | 1.6 | 0.00 | 0.00 | 0.00 | 70 | 1011.6 |
| 20260505080610 | 12 | 143 | 1.6 | 1.6 | 0.00 | 0.00 | 0.00 | 69 | 1011.6 |
| 20260505080106 | 12 | 153 | 1.6 | 1.6 | 0.00 | 0.00 | 0.00 | 70 | 1011.7 |
| 20260505075602 | 12 | 151 | 1.6 | 1.6 | 0.00 | 0.00 | 0.00 | 69 | 1011.5 |
| 20260505075059 | 12 | 170 | 1.6 | 1.6 | 0.00 | 0.00 | 0.00 | 69 | 1011.4 |
| 20260505074556 | 12 | 139 | 1.6 | 1.6 | 0.00 | 0.00 | 0.00 | 69 | 1011.5 |
| 20260505074053 | 12 | 235 | 3.2 | 3.2 | 0.00 | 0.00 | 0.00 | 69 | 1011.7 |
| 20260505073550 | 12 | 140 | 1.6 | 1.6 | 0.00 | 0.00 | 0.00 | 69 | 1011.5 |
| 20260505073049 | 12 | 161 | 3.2 | 3.2 | 0.00 | 0.00 | 0.00 | 68 | 1011.3 |
| 20260505072549 | 12 | 131 | 1.6 | 1.6 | 0.00 | 0.00 | 0.00 | 68 | 1011.4 |
| 20260505072046 | 12 | 140 | 1.6 | 1.6 | 0.00 | 0.00 | 0.00 | 68 | 1011.7 |
| 20260505071542 | 12 | 146 | 3.2 | 4.8 | 0.00 | 0.00 | 0.00 | 68 | 1011.7 |
| 20260505071040 | 13 | 146 | 1.6 | 1.6 | 0.00 | 0.00 | 0.00 | 67 | 1011.5 |
| 20260505070537 | 13 | 147 | 1.6 | 1.6 | 0.00 | 0.00 | 0.00 | 66 | 1011.5 |
| 20260505070033 | 13 | 156 | 1.6 | 1.6 | 0.00 | 0.00 | 0.00 | 66 | 1011.6 |
| 20260505065529 | 13 | 172 | 1.6 | 3.2 | 0.00 | 0.00 | 0.00 | 65 | 1011.6 |
| 20260505065026 | 13 | 144 | 1.6 | 1.6 | 0.00 | 0.00 | 0.00 | 65 | 1011.6 |
| 20260505064523 | 13 | 168 | 3.2 | 3.2 | 0.00 | 0.00 | 0.00 | 65 | 1011.6 |
| 20260505064021 | 13 | 247 | 4.8 | 4.8 | 0.00 | 0.00 | 0.00 | 64 | 1011.3 |
| 20260505063518 | 13 | 175 | 3.2 | 4.8 | 0.00 | 0.00 | 0.00 | 64 | 1011.5 |
| 20260505063014 | 13 | 228 | 4.8 | 8.0 | 0.00 | 0.00 | 0.00 | 64 | 1011.7 |
| 20260505062511 | 13 | 142 | 1.6 | 3.2 | 0.00 | 0.00 | 0.00 | 64 | 1011.5 |
| 20260505062008 | 13 | 176 | 1.6 | 3.2 | 0.00 | 0.00 | 0.00 | 63 | 1011.5 |
| 20260505061506 | 13 | 167 | 3.2 | 3.2 | 0.00 | 0.00 | 0.00 | 63 | 1011.8 |
| 20260505061003 | 13 | 250 | 4.8 | 4.8 | 0.00 | 0.00 | 0.00 | 63 | 1011.7 |
| 20260505060500 | 13 | 145 | 3.2 | 3.2 | 0.00 | 0.00 | 0.00 | 63 | 1011.8 |